Tracking 20942 objects as of 11-Jul-2020
HD Live streaming from Space Station
objects crossing your sky now

THORAD DELTA 1 DEB

Track THORAD DELTA 1 DEB now!
10-day predictions


NORAD ID: 42620
Int'l Code: 1974-089GM
Perigee: 1,470.1 km
Apogee: 1,704.0 km
Inclination: 101.1 °
Period: 117.8 minutes
Semi major axis: 7958 km
RCS: Unknown
Launch date: November 15, 1974
Source: United States (US)
Launch site: AIR FORCE WESTERN TEST RANGE (AFWTR)

Note: This is SATELLITE DEBRIS
aabbcc
Your satellite tracking list
Your tracking list is empty




NASA's NSSDC Master Catalog

Two Line Element Set (TLE):
1 42620U 74089GM  20191.93443230 +.00000007 +00000-0 +40290-3 0  9998
2 42620 101.0872 009.3889 0146980 236.3529 122.3433 12.22902525281728
Source of the keplerian elements: AFSPC